Location: Kavul?ru
(16.6288°N, 80.5832°E)
Time: 19:42:54
(UTC+00:00)

GPS 2-12 Rocket1 - Pass Details

Date: 15 May 2026
Orbit: 560 x 613 km, 20.0° (Epoch: 6 June)

Event Time Altitude Azimuth Distance (km) Brightness Sun altitude
Rises 14:26:36 0° 269° (W) 2,737 7.4 -19.5°
Reaches altitude 10° 14:29:11 10° 256° (WSW) 1,848 6.1 -20.1°
Maximum altitude 14:32:44 25° 200° (SSW) 1,164 4.4 -20.8°
Enters shadow 14:33:08 25° 191° (S) 1,176 4.3 -20.9°
